Weather History for Szeged, Hungary

Change the Weather History Date:

Saturday, March 16, 2013

  Actual Average (LRAR) Record (LRAR)
Temperature  
Mean Temperature 26 °F -  
Max Temperature 34 °F 58 °F 68 °F (2011)
Min Temperature 19 °F 38 °F 21 °F (1998)
Degree Days  
Heating Degree Days 38    
Moisture  
Dew Point 21 °F    
Average Humidity 73    
Maximum Humidity 100    
Minimum Humidity 43    
Precipitation  
Precipitation 0.00 in 0.05 in - ()
Sea Level Pressure  
Sea Level Pressure 30.08 in    
Wind  
Wind Speed 4 mph ()    
Max Wind Speed 12 mph    
Max Gust Speed -    
Visibility 6.9 miles    
Events Fog    
Averages and records for this station are not official NWS values.
T = Trace of Precipitation, MM = Missing Value Source: Averaged Metar Reports

Daily Weather History Graph

Daily Weather History Graph

Search for Another Location

Airport:

Trip Planner

Search our weather history database for the weather conditions in past years. The results will help you decide how hot, cold, wet, or windy it might be!

Date:

Astronomy

Mar. 16, 2013 Rise Set
Actual Time 5:50 AM CET 5:46 PM CET
Civil Twilight 5:20 AM CET 6:16 PM CET
Nautical Twilight 4:45 AM CET 6:51 PM CET
Astronomical Twilight 4:10 AM CET 7:27 PM CET
Moon 7:51 AM CET (3/16) 10:57 PM CET (3/16)
Length of Visible Light 12h 56m
Length of Day
11h 56m
Waxing Crescent, 21% of the Moon is Illuminated
Mar 16
Waxing Crescent
Mar 19
First Quarter
Mar 27
Full
Apr 3
Last Quarter
Apr 10
New

Hourly Weather History & Observations

Time (CET) Temp. Windchill Dew Point Humidity Pressure Visibility Wind Dir Wind Speed Gust Speed Precip Events Conditions
12:45 AM 26.6 °F - 23.0 °F 86% 29.92 in - North 2.3 mph - N/A   Clear
1:00 AM 26 °F - 22 °F 79% 29.94 in 12 mi North 2.2 mph - -   Partly Cloudy
1:45 AM 24.8 °F 17.9 °F 23.0 °F 93% 29.95 in - West 5.8 mph - N/A   Clear
2:45 AM 24.8 °F 17.9 °F 21.2 °F 86% 29.95 in 6.2 mi West 5.8 mph - N/A   Overcast
3:45 AM 24.8 °F 19.1 °F 21.2 °F 86% 29.98 in 6.2 mi WNW 4.6 mph - N/A   Overcast
4:45 AM 24.8 °F 20.5 °F 21.2 °F 86% 29.98 in - NW 3.5 mph - N/A   Clear
5:15 AM 23.0 °F - 19.4 °F 86% 30.01 in - NW 1.2 mph - N/A   Clear
5:45 AM 23.0 °F - 21.2 °F 93% 30.01 in - West 1.2 mph - N/A   Clear
6:15 AM 21.2 °F - 19.4 °F 93% 30.04 in - WSW 2.3 mph - N/A   Clear
6:45 AM 19.4 °F - 19.4 °F 100% 30.04 in 3.7 mi West 2.3 mph - N/A Fog Fog
7:00 AM 20 °F - 19 °F 96% 30.05 in 4 mi West 2.2 mph - - Fog Patches of Fog
7:15 AM 23.0 °F - 21.2 °F 93% 30.04 in 5.0 mi Calm Calm - N/A Fog Fog
7:45 AM 24.8 °F - 23.0 °F 93% 30.06 in - West 2.3 mph - N/A   Clear
8:15 AM 32.0 °F - 23.0 °F 69% 30.06 in - NW 2.3 mph - N/A   Clear
8:45 AM 28.4 °F 20.4 °F 21.2 °F 74% 30.06 in - NW 8.1 mph - N/A   Clear
9:15 AM 30.2 °F 21.9 °F 21.2 °F 69% 30.06 in - NW 9.2 mph - N/A   Clear
9:45 AM 30.2 °F 21.3 °F 21.2 °F 69% 30.09 in - WNW 10.4 mph - N/A   Clear
10:15 AM 30.2 °F 21.9 °F 23.0 °F 75% 30.09 in - WNW 9.2 mph - N/A   Clear
10:45 AM 32.0 °F 24.8 °F 21.2 °F 64% 30.09 in - NW 8.1 mph - N/A   Clear
11:15 AM 32.0 °F 24.8 °F 19.4 °F 60% 30.09 in 6.2 mi NNW 8.1 mph - N/A   Partly Cloudy
11:45 AM 33.8 °F 28.6 °F 19.4 °F 56% 30.09 in 6.2 mi NNW 5.8 mph - N/A   Partly Cloudy
12:45 PM 32.0 °F 25.6 °F 19.4 °F 60% 30.09 in 6.2 mi WNW 6.9 mph - N/A   Scattered Clouds
1:00 PM 33 °F - 19 °F 43% 30.11 in 19 mi WNW 6.7 mph - -   Partly Cloudy
1:15 PM 32.0 °F 25.6 °F 19.4 °F 60% 30.09 in 6.2 mi WNW 6.9 mph - N/A   Scattered Clouds
1:45 PM 32.0 °F 26.4 °F 19.4 °F 60% 30.09 in 6.2 mi WNW 5.8 mph - N/A   Scattered Clouds
2:15 PM 33.8 °F 27.7 °F 19.4 °F 56% 30.09 in 6.2 mi West 6.9 mph - N/A   Scattered Clouds
2:45 PM 33.8 °F 25.8 °F 17.6 °F 52% 30.09 in 6.2 mi NW 10.4 mph - N/A   Scattered Clouds
3:15 PM 32.0 °F 23.0 °F 19.4 °F 60% 30.09 in 6.2 mi WNW 11.5 mph - N/A   Scattered Clouds
3:45 PM 33.8 °F 27.7 °F 19.4 °F 56% 30.09 in 6.2 mi NW 6.9 mph - N/A   Partly Cloudy
4:15 PM 32.0 °F 24.8 °F 19.4 °F 60% 30.09 in 6.2 mi NW 8.1 mph - N/A   Partly Cloudy
4:45 PM 32.0 °F 25.6 °F 19.4 °F 60% 30.09 in 6.2 mi WNW 6.9 mph - N/A   Partly Cloudy
5:15 PM 32.0 °F 25.6 °F 19.4 °F 60% 30.12 in 6.2 mi WNW 6.9 mph - N/A   Scattered Clouds
5:45 PM 32.0 °F 26.4 °F 21.2 °F 64% 30.12 in 6.2 mi WNW 5.8 mph - N/A   Scattered Clouds
6:15 PM 30.2 °F 26.7 °F 21.2 °F 69% 30.12 in - WNW 3.5 mph - N/A   Clear
6:45 PM 30.2 °F 25.4 °F 21.2 °F 69% 30.15 in - WNW 4.6 mph - N/A   Clear
7:00 PM 30 °F - 21 °F 59% 30.16 in 9 mi WNW 4.5 mph - -   Partly Cloudy
7:15 PM 28.4 °F 22.2 °F 21.2 °F 74% 30.15 in - West 5.8 mph - N/A   Clear
7:45 PM 28.4 °F 22.2 °F 21.2 °F 74% 30.15 in - WNW 5.8 mph - N/A   Clear
8:15 PM 26.6 °F 20.0 °F 21.2 °F 80% 30.15 in - WNW 5.8 mph - N/A   Clear
9:45 PM 26.6 °F - 21.2 °F 80% 30.15 in - NNW 2.3 mph - N/A   Clear
10:45 PM 24.8 °F - 21.2 °F 86% 30.18 in - NNW 2.3 mph - N/A   Clear
11:45 PM 23.0 °F - 19.4 °F 86% 30.18 in - NNW 1.2 mph - N/A   Clear